This is the latest recevied weather packets stored in our database for station/object WD4ITN. If no packets are shown the sender has not sent any weather packets the latest 10 day(s).
| Time | Temp. | Humidity | Pressure | Rain* | Wind** | Luminosity | Snow |
|---|---|---|---|---|---|---|---|
| 1778005712 | 22.78° C | 38% | 1011.2 hPa | 0 mm | - | - | - |
| 1778005414 | 22.78° C | 40% | 1011.3 hPa | 0 mm | - | - | - |
| 1778005103 | 22.22° C | 40% | 1011.3 hPa | 0 mm | - | - | - |
| 1778004804 | 22.22° C | 41% | 1011.4 hPa | 0 mm | - | - | - |
| 1778004504 | 22.22° C | 41% | 1011.5 hPa | 0 mm | - | - | - |
| 1778004194 | 22.22° C | 42% | 1011.7 hPa | 0 mm | - | - | - |
| 1778003893 | 22.22° C | 42% | 1011.7 hPa | 0 mm | - | - | - |
| 1778003611 | 22.22° C | 46% | 1011.7 hPa | 0 mm | - | - | - |
| 1778003308 | 22.22° C | 44% | 1011.8 hPa | 0 mm | - | - | - |
| 1778003009 | 22.22° C | 48% | 1011.8 hPa | 0 mm | - | - | - |
| 1778002704 | 22.78° C | 43% | 1011.9 hPa | 0 mm | - | - | - |
| 1778002402 | 22.22° C | 43% | 1011.9 hPa | 0 mm | - | - | - |
| 1778002105 | 22.22° C | 44% | 1011.9 hPa | 0 mm | - | - | - |
| 1778001793 | 22.22° C | 48% | 1011.9 hPa | 0 mm | - | - | - |
| 1778001498 | 22.22° C | 49% | 1012 hPa | 0 mm | - | - | - |
| 1778001195 | 21.67° C | 47% | 1012 hPa | 0 mm | - | - | - |
| 1778000920 | 21.67° C | 45% | 1012 hPa | 0 mm | - | - | - |
| 1778000610 | 21.67° C | 46% | 1012.2 hPa | 0 mm | - | - | - |
| 1778000313 | 21.67° C | 45% | 1012.1 hPa | 0 mm | - | - | - |
| 1778000001 | 21.67° C | 49% | 1012.2 hPa | 0 mm | - | - | - |
| 1777999702 | 21.67° C | 43% | 1012.2 hPa | 0 mm | - | - | - |
| 1777999405 | 21.67° C | 44% | 1012.4 hPa | 0 mm | - | - | - |
| 1777999094 | 21.67° C | 45% | 1012.4 hPa | 0 mm | - | - | - |
| 1777998795 | 21.67° C | 49% | 1012.4 hPa | 0 mm | - | - | - |
| 1777998514 | 21.11° C | 46% | 1012.4 hPa | 0 mm | - | - | - |
* Rain since midnight (hover to see other rain measurements)
** Current wind speed in m/s (hover to see current wind gust speed)